Leesburg, FL

9:56 PM EST on February 22, 2018 (GMT -0500)
Leesburg Regional

Weather History for KLEE - November, 2012

Change the Weather History Date:

Sunday, November 18, 2012

  Actual Average Record
Temperature  
Mean Temperature 62 °F -  
Max Temperature 70 °F 77 °F 87 °F (1978)
Min Temperature 54 °F 54 °F 36 °F (1970)
Degree Days  
Heating Degree Days 3    
Growing Degree Days 12 (Base 50)    
Moisture  
Dew Point 55 °F    
Average Humidity 81    
Maximum Humidity 97    
Minimum Humidity 60    
Precipitation  
Precipitation 0.00 in - - ()
Sea Level Pressure  
Sea Level Pressure 30.19 in    
Wind  
Wind Speed 10 mph (NNE)    
Max Wind Speed 17 mph    
Max Gust Speed 26 mph    
Visibility 10 miles    
Events      
Averages and records for this station are not official NWS values.
T = Trace of Precipitation, MM = Missing Value Source: NWS Daily Summary

Daily Weather History Graph

Daily Weather History Graph

Search for Another Location

Airport or City:

Trip Planner

Search our weather history database for the weather conditions in past years. The results will help you decide how hot, cold, wet, or windy it might be!

Date:

Astronomy

Nov. 18, 2012 Rise Set
Actual Time 6:53 AM EST 5:31 PM EST
Civil Twilight 6:27 AM EST 5:56 PM EST
Nautical Twilight 5:59 AM EST 6:25 PM EST
Astronomical Twilight 5:30 AM EST 6:53 PM EST
Moon 11:23 AM EST (11/18) 10:43 PM EST (11/18)
Length of Visible Light 11h 29m
Length of Day
10h 38m
Waxing Crescent, 30% of the Moon is Illuminated
Nov 18
Waxing Crescent
Nov 20
First Quarter
Nov 28
Full
Dec 6
Last Quarter
Dec 13
New

Hourly Weather History & Observations

Time (EST) Temp. Dew Point Humidity Pressure Visibility Wind Dir Wind Speed Gust Speed Precip Events Conditions
12:53 AM 60.1 °F 57.0 °F 90% 30.18 in 10.0 mi NNE 10.4 mph - N/A   Overcast
1:53 AM 60.1 °F 57.0 °F 90% 30.17 in 9.0 mi NNE 10.4 mph - N/A   Overcast
2:53 AM 60.1 °F 57.0 °F 90% 30.16 in 10.0 mi North 10.4 mph - N/A   Overcast
3:53 AM 59.0 °F 55.9 °F 90% 30.16 in 8.0 mi NNE 11.5 mph - N/A   Overcast
4:53 AM 57.9 °F 55.0 °F 90% 30.17 in 9.0 mi North 10.4 mph - N/A   Overcast
5:53 AM 57.0 °F 55.0 °F 93% 30.18 in 7.0 mi North 9.2 mph - N/A   Overcast
6:53 AM 57.0 °F 55.0 °F 93% 30.20 in 9.0 mi North 10.4 mph - N/A   Overcast
7:53 AM 57.0 °F 54.0 °F 89% 30.21 in 7.0 mi North 13.8 mph - N/A   Overcast
8:53 AM 59.0 °F 55.0 °F 87% 30.22 in 9.0 mi NNE 15.0 mph - N/A   Overcast
9:53 AM 59.0 °F 55.0 °F 87% 30.23 in 9.0 mi NNE 11.5 mph - N/A   Overcast
10:35 AM 62.6 °F 55.4 °F 77% 30.23 in 10.0 mi North 13.8 mph - N/A   Overcast
10:53 AM 63.0 °F 55.0 °F 75% 30.22 in 10.0 mi NNE 11.5 mph - N/A   Overcast
11:31 AM 64.4 °F 55.4 °F 73% 30.22 in 10.0 mi NE 17.3 mph 26.5 mph N/A   Overcast
11:53 AM 66.0 °F 55.9 °F 70% 30.21 in 10.0 mi NNE 16.1 mph - N/A   Overcast
12:53 PM 64.0 °F 55.0 °F 73% 30.19 in 10.0 mi NNE 15.0 mph - N/A   Overcast
1:53 PM 68.0 °F 55.0 °F 63% 30.17 in 10.0 mi NE 11.5 mph - N/A   Overcast
2:33 PM 69.8 °F 55.4 °F 60% 30.16 in 10.0 mi NNE 9.2 mph - N/A   Scattered Clouds
2:53 PM 70.0 °F 55.9 °F 61% 30.16 in 10.0 mi NE 10.4 mph - N/A   Scattered Clouds
3:53 PM 69.1 °F 55.0 °F 61% 30.17 in 10.0 mi NE 10.4 mph - N/A   Partly Cloudy
4:53 PM 64.9 °F 55.0 °F 70% 30.18 in 10.0 mi NNE 9.2 mph - N/A   Clear
5:53 PM 61.0 °F 54.0 °F 78% 30.18 in 10.0 mi NE 3.5 mph - N/A   Clear
6:53 PM 57.9 °F 53.1 °F 84% 30.20 in 10.0 mi NE 4.6 mph - N/A   Clear
7:53 PM 57.0 °F 53.1 °F 87% 30.21 in 10.0 mi Calm Calm - N/A   Clear
8:53 PM 55.9 °F 53.1 °F 90% 30.21 in 10.0 mi Calm Calm - N/A   Clear
9:53 PM 54.0 °F 52.0 °F 93% 30.21 in 10.0 mi Calm Calm - N/A   Clear
10:53 PM 54.0 °F 53.1 °F 97% 30.20 in 9.0 mi North 3.5 mph - N/A   Clear